Weather History for KCGI - May, 2012

Change the Weather History Date:

Tuesday, May 29, 2012

  Actual Average Record
Temperature  
Mean Temperature 78 °F 70 °F  
Max Temperature 91 °F 82 °F 92 °F (1987)
Min Temperature 64 °F 59 °F 42 °F (1964)
Degree Days  
Heating Degree Days 0 1  
Month to date heating degree days 14 67  
Since 1 July heating degree days 3341 4385  
Cooling Degree Days 13 6  
Month to date cooling degree days 227 108  
Year to date cooling degree days 334 139  
Growing Degree Days 30 (Base 50)    
Moisture  
Dew Point 61 °F    
Average Humidity 57    
Maximum Humidity 84    
Minimum Humidity 29    
Precipitation  
Precipitation 0.00 in 0.15 in 0.80 in (1975)
Month to date precipitation 0.69 5.18  
Year to date precipitation 10.03 20.82  
Sea Level Pressure  
Sea Level Pressure 29.85 in    
Wind  
Wind Speed 5 mph (NE)    
Max Wind Speed 16 mph    
Max Gust Speed 23 mph    
Visibility 9 miles    
Events      
T = Trace of Precipitation, MM = Missing Value Source: NWS Daily Summary

Daily Weather History Graph

Daily Weather History Graph

Search for Another Location

Airport or City:

Trip Planner

Search our weather history database for the weather conditions in past years. The results will help you decide how hot, cold, wet, or windy it might be!

Date:

Astronomy

May. 29, 2012 Rise Set
Actual Time 5:40 AM CDT 8:11 PM CDT
Civil Twilight 5:10 AM CDT 8:41 PM CDT
Nautical Twilight 4:32 AM CDT 9:19 PM CDT
Astronomical Twilight 3:51 AM CDT 10:00 PM CDT
Moon 1:49 PM CDT 1:25 AM CDT
Length of Visible Light 15h 31m
Length of Day
14h 30m
First Quarter, 59% of the Moon is Illuminated
May 29
First Quarter
Jun 4
Full
Jun 11
Last Quarter
Jun 19
New
Jun 26
First Quarter

Hourly Weather History & Observations

Time (CDT) Temp. Heat Index Dew Point Humidity Pressure Visibility Wind Dir Wind Speed Gust Speed Precip Events Conditions
12:53 AM 79.0 °F - 66.0 °F 64% 29.82 in 9.0 mi South 8.1 mph - N/A   Clear
1:53 AM 79.0 °F - 66.0 °F 64% 29.81 in 9.0 mi SSW 6.9 mph - N/A   Clear
2:53 AM 75.9 °F - 66.9 °F 74% 29.81 in 8.0 mi SSW 5.8 mph - N/A   Clear
3:53 AM 72.0 °F - 66.0 °F 81% 29.82 in 7.0 mi Calm Calm - N/A   Clear
4:53 AM 73.0 °F - 66.0 °F 79% 29.83 in 7.0 mi Calm Calm - N/A   Clear
5:53 AM 69.1 °F - 64.0 °F 84% 29.85 in 4.0 mi Calm Calm - N/A   Haze
6:53 AM 73.0 °F - 66.0 °F 79% 29.86 in 5.0 mi West 3.5 mph - N/A   Haze
7:53 AM 78.1 °F - 66.0 °F 66% 29.88 in 10.0 mi NNW 12.7 mph - N/A   Clear
8:53 AM 80.1 °F 81.7 °F 64.0 °F 58% 29.88 in 10.0 mi North 15.0 mph - N/A   Mostly Cloudy
9:53 AM 82.0 °F 83.0 °F 62.1 °F 51% 29.87 in 10.0 mi NNE 10.4 mph - N/A   Clear
10:53 AM 84.0 °F 84.5 °F 62.1 °F 47% 29.86 in 10.0 mi NE 10.4 mph 18.4 mph N/A   Clear
11:53 AM 86.0 °F 85.7 °F 60.1 °F 41% 29.87 in 10.0 mi North 8.1 mph - N/A   Partly Cloudy
12:53 PM 84.9 °F 84.2 °F 57.9 °F 40% 29.87 in 10.0 mi NNE 8.1 mph - N/A   Overcast
1:53 PM 88.0 °F 87.6 °F 60.1 °F 39% 29.86 in 10.0 mi East 6.9 mph - N/A   Partly Cloudy
2:53 PM 89.1 °F 88.2 °F 59.0 °F 36% 29.84 in 10.0 mi Calm Calm - N/A   Clear
3:53 PM 89.6 °F 88.1 °F 57.2 °F 33% 29.85 in 10.0 mi Calm Calm - N/A   Clear
4:53 PM 90.0 °F 87.7 °F 54.0 °F 29% 29.83 in 10.0 mi North 8.1 mph - N/A   Clear
5:53 PM 90.0 °F 87.7 °F 54.0 °F 29% 29.83 in 10.0 mi North 6.9 mph - N/A   Clear
6:53 PM 87.1 °F 85.7 °F 55.9 °F 35% 29.83 in 10.0 mi NNE 9.2 mph - N/A   Clear
7:53 PM 82.0 °F 81.6 °F 55.9 °F 41% 29.84 in 10.0 mi ENE 5.8 mph - N/A   Clear
8:53 PM 75.0 °F - 57.0 °F 53% 29.84 in 10.0 mi East 4.6 mph - N/A   Clear
9:53 PM 73.0 °F - 59.0 °F 61% 29.85 in 10.0 mi Calm Calm - N/A   Clear
10:53 PM 70.0 °F - 60.1 °F 71% 29.86 in 10.0 mi ESE 3.5 mph - N/A   Clear
11:53 PM 68.0 °F - 60.1 °F 76% 29.86 in 10.0 mi East 3.5 mph - N/A   Clear